TimePST,TemperatureF,Dew PointF,Humidity,Sea Level PressureIn,VisibilityMPH,Wind Direction,Wind SpeedMPH,Gust SpeedMPH,PrecipitationIn,Events,Conditions,WindDirDegrees,DateUTC
12:53 AM,19.0,16.0,88,30.63,7.0,North,4.6,-,N/A,,Clear,350,2013-01-16 08:53:00
1:53 AM,19.9,17.1,89,30.63,8.0,Calm,Calm,-,N/A,,Clear,0,2013-01-16 09:53:00
2:53 AM,19.0,16.0,88,30.65,8.0,Calm,Calm,-,N/A,,Clear,0,2013-01-16 10:53:00
3:46 AM,19.4,15.8,86,30.62,8.0,NNW,3.5,-,N/A,,Mostly Cloudy,340,2013-01-16 11:46:00
3:53 AM,19.0,17.1,92,30.64,8.0,NNW,3.5,-,N/A,,Overcast,330,2013-01-16 11:53:00
4:53 AM,24.1,19.9,84,30.64,9.0,North,6.9,-,N/A,,Overcast,350,2013-01-16 12:53:00
5:53 AM,24.1,19.9,84,30.64,9.0,North,6.9,-,N/A,,Overcast,350,2013-01-16 13:53:00
6:53 AM,24.1,21.0,88,30.66,9.0,North,6.9,-,N/A,,Overcast,10,2013-01-16 14:53:00
7:37 AM,24.8,21.2,86,30.65,8.0,Calm,Calm,-,N/A,,Overcast,0,2013-01-16 15:37:00
7:53 AM,24.1,21.9,91,30.68,7.0,NNW,3.5,-,N/A,,Overcast,330,2013-01-16 15:53:00
8:53 AM,25.0,23.0,92,30.69,6.0,NW,3.5,-,N/A,,Overcast,310,2013-01-16 16:53:00
9:11 AM,26.6,23.0,86,30.67,6.0,WNW,3.5,-,N/A,,Overcast,290,2013-01-16 17:11:00
9:31 AM,26.6,23.0,86,30.67,3.0,NW,3.5,-,N/A,,Overcast,310,2013-01-16 17:31:00
9:53 AM,26.1,24.1,92,30.69,3.0,Calm,Calm,-,N/A,,Overcast,0,2013-01-16 17:53:00
10:53 AM,28.0,24.1,85,30.69,3.0,Calm,Calm,-,N/A,,Overcast,0,2013-01-16 18:53:00
12:00 PM,28.4,24.8,86,30.65,8.0,Calm,Calm,-,N/A,,Overcast,0,2013-01-16 20:00:00
12:53 PM,28.9,24.1,82,30.65,6.0,NE,3.5,-,N/A,,Haze,40,2013-01-16 20:53:00
1:53 PM,28.9,24.1,82,30.64,6.0,Calm,Calm,-,N/A,,Haze,0,2013-01-16 21:53:00
2:53 PM,28.9,25.0,85,30.64,5.0,SE,3.5,-,N/A,,Haze,130,2013-01-16 22:53:00
3:53 PM,28.9,25.0,85,30.64,5.0,Calm,Calm,-,N/A,,Haze,0,2013-01-16 23:53:00
4:53 PM,28.9,25.0,85,30.64,8.0,SSE,3.5,-,N/A,,Haze,150,2013-01-17 00:53:00
5:53 PM,28.9,25.0,85,30.64,6.0,SSE,3.5,-,N/A,,Haze,150,2013-01-17 01:53:00
6:53 PM,30.0,26.1,85,30.63,6.0,Calm,Calm,-,N/A,,Haze,0,2013-01-17 02:53:00
7:53 PM,30.0,26.1,85,30.64,6.0,Calm,Calm,-,N/A,,Overcast,0,2013-01-17 03:53:00
8:53 PM,30.0,26.1,85,30.63,6.0,Calm,Calm,-,N/A,,Overcast,0,2013-01-17 04:53:00
9:53 PM,30.0,26.1,85,30.65,8.0,Calm,Calm,-,N/A,,Overcast,0,2013-01-17 05:53:00
10:53 PM,30.0,26.1,85,30.65,8.0,SE,5.8,-,N/A,,Overcast,140,2013-01-17 06:53:00
11:53 PM,28.9,26.1,89,30.65,7.0,SE,6.9,-,N/A,,Overcast,140,2013-01-17 07:53:00